Location: Newark
(43.0000°N, 1.6781°W)
Time: 00:49:22
(UTC+00:00)

Vanguard 1 Rocket - Pass Details

Date: 25 April 2021
Orbit: 652 x 4224 km, 34.3° (Epoch: 06 May)

Event Time Altitude Azimuth Distance (km) Brightness Sun altitude
Rises 08:57:31 0° 200° (SSW) 6,719 11.9 40.1°
Reaches altitude 10° 09:05:45 10° 179° (S) 4,776 11.4 41.5°
Maximum altitude 09:10:47 13° 155° (SSE) 3,879 11.4 42.3°
Drops below altitude 10° 09:14:48 10° 130° (SE) 3,631 11.5 43.0°
Sets 09:19:14 0° 103° (ESE) 4,040 11.5 43.7°
